Theta_e
325 322 319 311 301 298 289 290 294 292 292 293 292 291 287 286 287 292 294 294 295 296 299 302 315 335 341 341 341 341 337 336 336 336 336 339 341 341 340 340 341 342 342 342 340 339 339 339 339
320 321 321 305 295 292 284 289 289 288 292 294 290 289 286 282 287 289 290 294 295 296 300 301 319 335 340 339 339 340 340 340 340 338 338 336 336 337 337 337 337 336 336 336 336 336 337 336 336
316 317 308 301 293 293 284 283 284 289 290 292 287 287 284 282 287 288 292 295 295 296 299 301 316 328 336 337 337 337 338 337 337 337 337 337 336 336 337 337 336 336 337 337 336 335 335 334 334
314 310 303 293 283 278 278 281 285 288 288 288 288 282 286 288 287 290 294 294 294 296 298 302 313 322 329 332 333 334 334 334 333 333 333 333 332 332 333 333 334 334 334 335 334 335 334 334 333
307 306 292 285 280 280 281 282 284 283 285 283 287 281 281 287 290 292 292 293 293 295 297 299 310 313 320 325 327 328 328 328 327 327 327 327 327 328 327 328 329 329 328 328 329 329 330 330 328
303 299 291 284 280 281 283 283 283 282 283 284 284 282 281 289 289 290 292 292 294 293 296 298 302 307 311 315 318 320 321 320 319 319 319 320 319 319 320 322 322 323 322 322 322 322 323 324 324
298 293 286 282 280 280 280 284 281 282 282 281 284 280 283 287 290 291 291 292 293 294 294 295 298 299 303 307 309 311 312 312 312 311 310 310 311 311 311 313 314 315 316 315 315 315 316 317 315
299 294 285 284 281 277 281 282 284 281 281 286 285 280 280 287 290 291 291 291 292 293 293 294 294 298 297 298 303 303 304 305 305 304 303 302 302 303 304 304 307 308 310 310 310 309 309 308 307
293 285 279 280 281 277 282 280 283 286 283 284 285 285 286 289 290 289 289 289 290 291 292 293 293 294 296 296 297 298 298 299 299 298 299 295 295 294 295 300 302 303 304 305 305 305 303 301 300
284 280 278 283 283 281 281 281 281 281 281 281 283 286 287 287 287 287 286 286 288 289 291 292 292 293 294 294 295 294 294 293 293 293 293 293 292 293 293 294 297 298 298 299 300 300 298 295 292
284 278 282 284 284 283 280 279 282 281 278 281 281 283 286 286 285 286 287 287 287 289 290 291 292 293 292 293 293 293 293 293 291 291 291 290 290 289 289 289 289 289 292 289 290 289 289 289 289
280 284 284 284 285 283 280 282 279 279 279 283 284 284 285 285 285 285 286 287 287 288 290 291 291 291 292 292 292 292 292 292 291 291 292 289 288 288 287 287 288 287 288 287 287 288 288 287 288
281 283 284 285 284 283 284 280 280 280 283 285 285 285 284 284 285 287 287 288 288 288 289 290 291 291 291 291 291 291 291 291 291 291 291 290 289 287 287 287 287 286 286 286 285 286 286 285 286
284 284 284 285 284 285 281 280 283 282 286 286 286 284 285 285 285 286 287 287 287 288 289 291 290 291 291 290 290 290 290 290 290 290 290 290 289 288 287 286 286 285 285 285 284 284 284 284 285
285 283 285 287 286 284 288 281 278 284 286 285 285 286 286 286 286 285 286 287 288 288 289 289 291 291 290 290 290 290 290 290 289 289 289 289 288 287 286 286 285 285 285 284 284 284 284 283 284
285 283 278 282 288 287 285 275 282 285 284 284 285 285 286 286 286 287 287 287 288 289 289 290 291 290 290 290 290 290 290 289 289 288 287 287 287 286 285 285 284 285 284 284 283 282 282 282 282
279 275 276 278 283 282 280 274 281 284 284 283 283 284 285 285 286 287 286 287 287 288 288 289 290 289 289 290 290 289 289 288 288 288 288 288 287 287 285 284 284 284 284 283 283 282 281 281 281
276 274 276 274 278 278 277 276 280 282 282 281 281 280 281 283 284 287 287 287 288 288 288 288 289 289 289 289 289 289 289 288 288 288 288 288 287 286 284 284 284 284 283 282 282 280 281 281 281
276 275 273 275 279 277 274 275 278 280 278 279 279 278 279 279 282 285 286 286 286 286 286 286 286 287 287 287 285 285 284 286 286 287 288 287 286 286 284 283 284 283 282 281 282 281 279 280 281
277 275 274 276 278 276 273 274 277 276 276 277 278 276 276 278 279 281 283 283 283 283 284 284 285 285 286 286 286 286 284 285 286 287 287 288 287 287 286 284 283 283 282 281 281 280 279 279 280
276 275 275 274 277 274 274 274 273 276 276 276 277 278 277 277 278 279 280 281 281 281 282 283 284 284 284 285 285 284 284 283 282 283 284 285 286 286 286 284 283 282 282 280 280 279 279 278 278
275 278 278 278 275 266 275 266 273 274 274 275 277 275 277 277 278 279 279 279 279 281 281 282 283 284 284 285 284 283 281 280 281 283 284 284 285 284 285 284 283 282 282 281 281 281 279 279 277
277 279 279 278 274 270 271 264 271 273 274 275 276 276 277 278 278 278 278 279 280 280 280 281 281 282 283 283 283 282 282 282 282 282 282 283 283 284 284 284 283 282 282 282 281 280 279 279 278
280 277 277 275 273 262 266 267 270 272 276 276 278 278 278 278 278 279 279 279 279 279 280 280 281 282 282 282 282 281 281 281 281 281 281 282 283 283 284 284 283 283 282 282 281 280 279 279 279
278 274 264 265 263 265 269 265 273 275 277 278 279 279 279 279 279 279 279 278 278 278 278 280 281 281 282 282 282 282 281 281 281 281 280 280 280 281 282 282 282 282 282 282 281 280 280 279 278
275 273 266 261 264 266 268 266 275 276 277 278 279 279 279 278 279 280 280 280 279 279 278 279 281 281 282 282 282 282 282 281 281 281 281 280 280 281 281 282 282 282 282 282 281 280 280 279 279
272 271 272 259 251 260 267 271 276 276 276 278 278 278 277 278 279 280 280 281 280 279 279 280 280 281 281 282 282 281 281 281 281 281 281 280 281 282 281 281 281 281 281 281 280 279 279 279 279
273 275 267 263 262 259 266 266 273 276 277 276 278 279 280 279 279 280 281 281 281 281 280 280 281 281 282 282 282 282 281 281 281 280 280 280 281 281 281 281 281 281 281 281 280 279 279 278 279
269 269 269 267 266 264 261 269 275 277 279 278 280 281 282 281 280 280 281 282 282 281 280 280 280 280 280 281 281 281 281 281 281 280 281 281 281 281 281 281 281 281 281 281 279 279 278 277 277
271 271 271 268 265 264 265 270 278 278 279 278 279 281 281 282 281 281 281 280 280 280 280 280 280 280 281 281 280 281 281 281 280 280 281 281 281 281 281 281 281 281 281 280 279 278 277 276 276
Wind_Speed
8 5 1 0 3 3 3 4 2 4 4 3 8 5 8 7 5 2 9 13 18 16 17 20 32 29 14 17 18 17 17 17 17 17 16 17 18 18 19 18 17 17 17 17 16 15 15 15 15
4 3 4 3 2 5 2 3 5 7 5 8 7 2 6 5 5 7 8 18 16 15 14 17 29 24 20 20 20 20 19 20 20 19 18 17 17 17 17 18 18 17 16 16 14 14 15 14 15
1 5 4 2 1 6 5 2 3 1 10 7 5 8 4 5 7 7 10 14 14 12 14 15 27 29 23 21 19 19 21 20 21 21 21 20 20 19 18 20 19 19 18 17 15 13 14 14 15
3 4 5 4 5 5 4 6 5 1 4 13 8 7 6 10 4 7 10 11 11 11 13 16 24 27 26 23 21 21 21 21 21 20 20 20 21 20 21 21 21 20 19 17 16 15 15 17 16
4 3 5 5 5 4 6 7 10 6 3 8 9 3 5 6 9 5 8 9 8 8 10 12 21 25 25 24 23 22 21 21 21 20 20 21 21 20 20 20 19 20 18 18 17 18 16 16 16
4 2 4 4 4 3 4 9 5 8 8 4 8 3 3 8 12 10 9 10 10 9 11 9 19 21 23 23 22 22 20 20 20 21 21 22 22 22 22 21 20 20 20 19 19 19 18 18 19
5 4 5 5 6 5 4 4 6 4 7 7 6 1 2 12 11 9 7 9 10 12 11 11 7 14 19 23 23 21 20 20 20 21 21 21 23 23 23 23 22 22 22 22 21 21 19 19 20
4 5 5 5 3 3 4 2 3 8 5 1 3 3 3 8 11 8 9 10 11 11 11 11 10 6 10 11 22 21 20 19 21 22 20 20 21 22 24 22 23 22 23 23 23 22 22 20 22
6 6 5 6 3 3 4 4 3 4 7 6 5 3 4 10 9 9 9 13 12 11 12 10 10 10 10 9 10 13 17 19 20 18 22 15 10 12 15 21 23 24 24 25 24 23 23 20 20
9 6 6 6 4 3 5 4 2 3 4 7 8 10 7 8 11 12 13 12 14 14 12 12 11 11 9 10 9 8 8 9 11 12 11 9 10 11 12 17 22 23 23 24 24 24 22 17 9
7 5 2 8 9 6 4 3 4 2 7 5 4 5 10 10 12 11 11 12 12 12 10 12 11 10 10 8 6 5 5 6 8 12 10 9 7 8 8 7 8 9 17 9 12 12 10 12 9
11 15 8 6 8 3 4 2 5 7 4 4 5 3 4 8 8 10 10 11 11 11 12 12 10 10 10 6 6 6 7 7 7 9 10 7 6 8 8 7 8 8 7 10 9 7 9 11 11
12 8 11 13 14 13 10 11 5 6 4 3 5 6 7 5 6 6 7 8 9 12 12 11 11 10 9 9 7 7 8 7 8 8 10 8 8 8 7 7 7 8 7 8 8 8 8 9 10
6 14 8 9 8 5 6 2 1 2 2 3 2 4 4 4 5 5 7 7 9 9 10 10 10 9 9 9 9 7 7 8 7 8 8 10 7 7 7 7 8 8 7 6 6 7 7 7 7
10 9 8 3 1 3 2 4 3 3 4 7 1 0 1 0 0 2 4 5 5 5 6 9 8 9 9 8 7 6 6 7 6 6 9 9 8 8 7 6 7 7 6 7 7 8 7 7 7
1 4 4 6 4 3 2 3 3 6 4 4 2 3 2 3 3 3 4 3 3 3 5 5 6 6 8 6 5 4 5 4 5 5 5 8 8 6 7 6 6 5 5 6 6 7 8 8 7
8 4 4 2 6 3 5 4 4 5 5 5 5 4 4 4 5 6 5 5 3 3 1 1 3 5 5 5 4 4 4 4 4 5 5 7 7 7 6 5 5 5 5 7 6 6 5 9 9
1 5 3 3 4 4 3 2 3 6 5 6 6 5 5 4 5 7 9 8 7 5 4 3 2 2 3 3 2 2 3 3 3 3 4 6 5 5 5 4 6 5 6 7 7 5 5 6 8
5 5 4 4 4 2 2 2 7 7 6 7 8 7 6 7 5 5 7 7 6 5 5 6 5 3 2 2 1 1 1 2 2 2 5 5 4 5 5 4 5 5 6 5 7 4 5 8 9
6 3 4 3 5 2 3 8 9 9 7 8 8 8 8 5 5 6 7 6 7 7 7 6 5 4 2 1 1 2 2 1 1 0 3 4 5 5 5 4 5 5 4 5 6 6 4 4 7
5 4 2 1 5 1 7 7 5 6 5 7 8 8 7 10 9 8 8 9 8 8 8 7 6 6 4 4 2 1 1 1 1 2 2 3 4 4 4 4 4 5 4 4 4 4 6 3 3
3 2 1 3 4 2 6 7 6 6 9 9 12 10 12 10 8 8 9 8 9 9 7 7 6 6 4 4 2 2 2 2 2 1 1 2 2 2 3 4 5 4 2 3 2 3 2 2 3
1 2 3 2 3 4 5 5 9 2 8 15 15 15 15 14 12 12 11 11 9 7 8 7 6 6 5 5 4 3 3 3 1 1 2 3 2 2 1 1 2 1 1 1 2 3 4 1 1
0 1 4 3 2 5 5 5 9 7 11 5 11 16 17 14 13 13 10 8 8 7 8 7 8 8 7 7 7 7 7 5 3 3 3 3 3 3 3 2 3 2 1 0 1 1 2 2 1
4 5 5 8 7 6 1 2 16 7 9 8 12 16 15 14 14 14 12 10 10 10 10 8 9 9 8 8 8 8 8 7 7 6 4 4 2 2 4 3 3 3 3 2 1 1 2 2 2
2 5 7 5 3 6 4 9 11 8 6 8 8 7 9 13 14 15 16 14 13 12 11 10 10 12 9 9 9 8 8 5 6 6 5 4 4 4 3 4 5 5 4 3 3 1 3 3 3
3 3 4 9 1 4 5 10 14 6 10 6 9 8 11 13 14 16 14 14 13 12 13 14 13 12 10 11 8 8 8 8 7 8 5 4 5 4 6 6 6 5 5 5 4 3 4 4 3
3 5 4 4 2 6 6 8 10 6 10 9 10 14 13 10 11 14 14 14 13 13 12 11 12 14 12 11 10 8 8 7 7 5 7 7 6 5 5 6 6 6 6 5 5 4 4 4 4
4 3 2 3 5 7 3 9 11 10 11 13 17 15 15 14 15 15 15 13 14 12 11 12 12 12 10 10 8 8 7 7 6 6 7 7 5 6 6 7 6 6 6 6 5 5 5 5 5
2 6 7 7 8 4 3 16 5 9 7 8 12 12 10 12 13 13 12 12 12 15 14 14 12 11 12 9 7 9 7 6 6 7 7 6 7 6 7 6 6 6 6 6 6 5 4 5 7
Wind_Direction
329 319 47 20 101 51 107 110 80 69 77 96 38 34 90 56 24 74 336 359 342 335 329 327 330 330 96 91 85 81 84 84 79 79 74 64 62 60 57 54 53 62 64 61 57 52 45 40 36
331 349 40 65 186 166 195 332 107 53 341 125 80 22 45 68 32 329 349 343 341 330 335 333 343 358 70 75 74 75 80 79 77 76 69 71 71 65 64 59 57 53 52 51 49 48 42 37 34
128 39 84 71 3 182 138 58 7 83 39 17 87 45 51 10 359 353 351 334 341 346 345 339 355 8 46 58 69 69 71 72 68 64 62 61 60 55 57 56 56 46 46 47 46 44 41 36 33
69 40 53 62 81 39 61 23 318 61 28 34 96 64 86 38 5 349 351 342 336 359 355 350 4 17 31 49 54 61 65 66 66 63 60 59 57 52 51 49 47 44 43 41 38 34 41 37 32
35 78 88 69 51 100 40 359 24 60 29 42 354 116 71 29 358 6 355 6 356 14 8 8 14 18 30 43 51 55 62 65 65 64 64 62 57 54 55 50 46 46 43 39 36 34 37 35 34
57 56 74 95 97 84 94 15 15 35 21 22 59 28 81 18 12 358 3 20 14 17 19 26 22 26 27 40 48 54 58 65 67 65 63 61 59 54 51 50 47 45 43 39 37 36 37 36 31
80 55 74 102 127 89 45 10 41 22 32 18 345 39 113 21 0 2 15 40 28 27 29 17 45 34 33 33 43 46 52 59 62 63 62 62 57 54 51 48 46 43 42 40 37 34 35 34 32
61 86 86 44 147 91 27 58 358 30 56 116 13 44 0 336 338 16 17 38 36 32 32 32 24 76 37 41 37 42 43 53 57 61 58 56 55 51 47 44 43 43 42 40 38 34 32 31 28
340 62 54 26 17 115 172 81 18 344 70 53 51 37 3 344 352 27 28 29 33 33 29 29 26 32 67 43 47 37 39 45 50 49 50 43 45 44 40 43 40 41 39 39 34 33 30 30 27
46 64 44 360 22 103 73 74 85 55 48 58 45 29 44 16 21 32 25 29 22 26 24 26 32 31 36 55 27 40 30 35 41 38 38 43 43 48 47 39 36 34 34 33 31 29 26 24 21
37 75 154 55 70 62 65 47 21 128 50 24 52 28 23 38 29 24 22 25 16 17 29 24 28 31 41 40 33 37 38 41 38 38 31 37 40 38 39 36 28 24 24 23 22 20 20 16 20
91 50 50 11 38 47 49 61 58 35 62 22 12 7 48 20 39 26 8 14 14 19 15 21 29 39 36 43 44 39 43 43 44 42 37 38 40 37 40 35 32 33 21 20 19 19 12 16 19
73 84 76 84 82 78 70 61 84 59 49 17 14 25 37 22 6 20 10 12 19 24 10 17 26 37 39 40 42 45 48 47 43 42 43 41 45 43 36 37 33 31 21 21 15 15 12 12 12
122 107 99 60 63 68 59 347 107 36 260 308 46 39 13 10 2 350 15 5 19 24 12 4 29 36 42 44 39 44 49 53 49 45 43 45 46 49 42 35 36 30 18 10 10 8 6 8 5
148 86 108 81 116 150 230 33 30 218 305 300 322 332 178 253 265 312 323 337 2 21 14 13 28 27 45 39 45 45 39 56 55 55 52 50 47 44 48 39 36 19 11 11 16 14 15 14 9
137 69 51 343 335 115 267 256 223 201 231 281 322 186 199 180 201 226 246 284 324 360 24 20 28 30 46 44 49 51 44 49 60 49 46 48 47 35 45 42 33 5 18 20 22 18 18 9 2
22 94 42 105 28 333 27 253 222 200 233 293 314 241 210 200 188 205 203 212 247 282 306 96 44 35 46 52 65 63 59 45 34 52 51 48 50 45 51 41 27 11 26 28 22 22 17 14 355
75 102 61 64 325 53 39 331 253 223 231 259 264 252 241 229 217 191 194 203 199 206 210 217 193 203 143 91 61 46 67 66 34 38 58 54 50 50 55 48 35 27 36 27 20 24 19 19 352
76 66 72 336 336 29 28 260 237 242 257 262 260 253 239 227 224 189 200 201 198 205 206 193 184 195 182 171 177 31 62 33 41 41 47 60 56 52 49 44 40 27 42 27 19 4 14 18 359
47 55 10 302 350 359 342 266 229 210 226 215 230 243 237 227 213 207 205 210 200 198 209 212 205 179 181 161 197 209 168 142 134 69 78 56 52 47 60 52 45 38 42 33 31 29 3 10 13
35 63 345 292 328 31 329 284 219 224 211 211 225 224 226 215 215 215 210 209 209 209 202 205 201 193 182 170 155 161 90 45 31 355 25 23 37 54 65 64 63 52 48 35 33 35 42 9 348
56 323 30 7 34 283 29 280 275 231 238 213 225 215 221 215 217 213 211 214 209 219 210 217 205 210 210 173 161 155 154 188 214 221 268 332 355 21 56 58 54 51 53 50 22 44 62 66 31
140 10 40 37 66 45 355 57 271 44 251 235 225 220 217 212 206 211 211 208 210 204 205 211 213 221 217 196 190 178 194 218 232 259 288 288 300 297 275 147 138 101 160 81 58 38 39 59 78
347 17 34 57 76 27 262 111 278 197 218 239 219 216 212 208 208 214 213 203 212 204 202 204 206 222 214 206 207 204 210 216 224 240 254 256 249 260 238 221 206 224 246 2 68 42 18 32 19
58 45 337 354 9 224 119 32 247 251 237 224 218 219 215 209 205 209 205 199 204 201 203 199 202 222 213 211 212 211 217 218 228 231 229 236 252 243 252 223 217 223 220 242 231 333 323 296 283
86 130 152 236 257 272 13 241 252 216 237 227 237 231 208 206 208 210 207 204 205 203 199 196 198 219 211 209 218 214 218 213 218 220 223 240 228 241 243 255 242 238 234 242 242 254 269 277 280
197 177 144 101 61 32 240 282 289 232 251 243 230 219 221 216 212 211 209 208 205 203 204 200 204 214 209 212 213 216 217 214 224 229 223 237 240 242 241 245 248 243 232 231 232 248 266 267 266
169 149 73 0 315 295 283 280 247 277 245 222 230 223 223 208 208 213 213 210 209 207 207 203 207 212 213 209 210 216 217 215 225 220 229 232 241 234 242 248 243 244 234 226 225 249 254 266 267
154 199 79 115 159 194 282 252 217 234 225 212 225 223 217 210 210 210 211 208 205 204 203 208 207 211 216 216 211 206 221 216 219 221 234 235 247 232 236 235 236 235 234 222 227 242 255 255 266
235 200 161 140 231 238 155 258 243 243 272 233 236 225 222 215 210 206 203 198 199 203 203 207 206 210 219 218 200 212 219 215 220 226 232 222 236 231 233 233 238 235 230 225 226 251 264 261 273